Regional Weather Roundup
Issued by NWS

Home | Current Version | Previous Version | Text Only | Print | Product List | Glossary Off
Versions: 1 2 3 4 5 6 7 8 9 10 11 12 13 14 15 16 17 18 19 20 21 22 23 24 25 26 27 28 29 30 31 32 33 34 35 36 37 38 39 40 41 42 43 44 45 46 47 48 49 50

090
ASUS43 KOAX 080302
RWRNE

WEATHER ROUNDUP FOR NEBRASKA
NATIONAL WEATHER SERVICE OMAHA NE
900 PM CST SUN FEB 07 2016

NOTES: SATELLITE DATA IS BEING USED TO AUGMENT CLOUD COVER ABOVE
       12000 FEET.
       "FAIR" INDICATES FEW OR NO CLOUDS BELOW 12,000 FEET WITH NO
       SIGNIFICANT WEATHER AND/OR OBSTRUCTIONS TO VISIBILITY.

  * THESE STATIONS DO NOT REPORT WEATHER SUCH AS RAIN...SNOW OR FOG.

NEZ001>004-019>022-054>056-080400-
NEBRASKA PANHANDLE

CITY           SKY/WX    TMP DP  RH WIND       PRES   REMARKS
SCOTTSBLUFF    CLOUDY    27  14  58 NW15      30.36R WCI  15
ALLIANCE       CLEAR     26  12  55 NW24      30.27S WCI  11
CHADRON        CLEAR     29  15  56 W21       30.31S WCI  16
SIDNEY         CLEAR     27  13  55 NW26      30.32R WCI  12
$$

NEZ057>060-069>072-079>082-080400-
SOUTHWEST NEBRASKA

CITY           SKY/WX    TMP DP  RH WIND       PRES   REMARKS
NORTH PLATTE   CLEAR     27  15  61 NW14      30.21R WCI  16
IMPERIAL       CLEAR     29  14  53 NW18G28   30.28S WCI  16
MCCOOK         CLEAR     31  18  58 NW23G32   30.24R WCI  18
$$

NEZ005>010-023>029-035>040-094-080400-
NORTH CENTRAL NEBRASKA

CITY           SKY/WX    TMP DP  RH WIND       PRES   REMARKS
VALENTINE      CLOUDY    33  18  53 NW30G47   30.17R WCI  19
BROKEN BOW     CLEAR     33  17  51 N24G39    30.14R WCI  20
ORD            CLEAR     33  17  51 NW28G36   30.11R WCI  20
$$

NEZ041-046>049-061>064-073>077-083>087-080400-
SOUTH CENTRAL NEBRASKA

CITY           SKY/WX    TMP DP  RH WIND       PRES   REMARKS
GRAND ISLAND   CLOUDY    35  20  54 NW25G32   30.12R WCI  23
HASTINGS       CLEAR     35  19  52 NW32G45   30.11R WCI  21
$$

NEZ011>018-030>034-042>045-080400-
NORTHEAST NEBRASKA

CITY           SKY/WX    TMP DP  RH WIND       PRES   REMARKS
NORFOLK        PTCLDY    34  21  59 NW33G46   30.00S WCI  20
COLUMBUS *     CLOUDY    36  18  48 NW24G39   30.05R WCI  24
TEKAMAH        LGT SNOW  33  29  85 NW20G25   29.99S FOG     WCI  21
$$

NEZ050>053-065>068-078-088>093-080400-
SOUTHEAST NEBRASKA

CITY           SKY/WX    TMP DP  RH WIND       PRES   REMARKS
LINCOLN        CLOUDY    36  28  73 NW8       30.05S WCI  30
OMAHA EPPLEY   MIX PCPN  34  28  79 NW16G25   29.98S WCI  24
FALLS CITY     CLOUDY    35  30  82 NW12      30.02S WCI  27
$$

NEZ044-045-051>053-067-080400-
OMAHA AREA

CITY           SKY/WX    TMP DP  RH WIND       PRES   REMARKS
OMAHA EPPLEY   MIX PCPN  34  28  79 NW16G25   29.98S WCI  24
OFFUTT AFB     FLURRIES  34  29  82 NW17      29.99S WCI  23
$$




USA.gov is the U.S. government's official web portal to all federal, state and local government web resources and services.